When you browse on this site, cookies collect data to enhance your experience and personalize the content and advertising you see.
Visit our Privacy Policy to learn more. By continuing to use the site, you agree to this use of cookies and data.
  • In United Kingdom
  • List of Countries
  • For 7 days
  • Water Temperature
  • Satellite Maps
  • Weather Map
  • Weather Widgets
  • user-avatar
    Login

    Hourly Weather Etchmiadzin

    Today, 21 May, Tuesday

    Time Temperature Precipitation Wind Pressure Humidity
    00:00 +17°C° 0.1 mm 2 mps 686 mmHg 54%
    01:00 +17°C° 0.1 mm 2 mps 686 mmHg 56%
    02:00 +16°C° 0.1 mm 2 mps 686 mmHg 58%
    03:00 +16°C° 0 mm 2 mps 685 mmHg 59%
    04:00 +16°C° 0.2 mm 2 mps 686 mmHg 60%
    05:00 +17°C° 0.2 mm 2 mps 686 mmHg 61%
    06:00 +17°C° 0.2 mm 2 mps 687 mmHg 61%
    07:00 +18°C° 0.1 mm 2 mps 687 mmHg 55%
    08:00 +20°C° 0.1 mm 2 mps 687 mmHg 50%
    09:00 +22°C° 0 mm 1 mps 687 mmHg 44%
    10:00 +23°C° 0.1 mm 1 mps 688 mmHg 41%
    11:00 +24°C° 0.1 mm 2 mps 688 mmHg 37%
    12:00 +25°C° 0.1 mm 2 mps 688 mmHg 34%
    13:00 +26°C° 0.1 mm 2 mps 688 mmHg 33%
    14:00 +26°C° 0.1 mm 1 mps 688 mmHg 32%
    15:00 +26°C° 0.1 mm 1 mps 688 mmHg 31%
    16:00 +26°C° 0.1 mm 2 mps 688 mmHg 34%
    17:00 +25°C° 0.1 mm 2 mps 688 mmHg 36%
    18:00 +25°C° 0.1 mm 2 mps 688 mmHg 38%
    19:00 +23°C° 0 mm 2 mps 688 mmHg 45%
    20:00 +20°C° 0 mm 2 mps 688 mmHg 51%
    21:00 +18°C° 0 mm 3 mps 688 mmHg 57%
    22:00 +18°C° 0 mm 3 mps 688 mmHg 59%
    23:00 +17°C° 0 mm 2 mps 688 mmHg 62%

    Tomorrow, 22 May, Wednesday

    Time Temperature Precipitation Wind Pressure Humidity
    00:00 +17°C° 0 mm 2 mps 689 mmHg 64%
    01:00 +16°C° 0 mm 2 mps 689 mmHg 64%
    02:00 +16°C° 0 mm 2 mps 688 mmHg 65%
    03:00 +15°C° 0 mm 2 mps 688 mmHg 65%
    04:00 +16°C° 0 mm 2 mps 688 mmHg 64%
    05:00 +16°C° 0 mm 2 mps 688 mmHg 62%
    06:00 +17°C° 0 mm 2 mps 688 mmHg 60%
    07:00 +19°C° 0 mm 2 mps 688 mmHg 54%
    08:00 +20°C° 0 mm 2 mps 688 mmHg 47%
    09:00 +23°C° 0 mm 2 mps 688 mmHg 41%
    10:00 +23°C° 0 mm 2 mps 688 mmHg 40%
    11:00 +24°C° 0 mm 2 mps 688 mmHg 39%
    12:00 +25°C° 0 mm 2 mps 688 mmHg 37%
    13:00 +26°C° 0.1 mm 2 mps 687 mmHg 36%
    14:00 +26°C° 0.1 mm 2 mps 687 mmHg 35%
    15:00 +27°C° 0.1 mm 2 mps 687 mmHg 34%
    16:00 +26°C° 0.5 mm 1 mps 687 mmHg 38%
    17:00 +25°C° 0.5 mm 1 mps 687 mmHg 42%
    18:00 +25°C° 0.5 mm 1 mps 687 mmHg 46%
    19:00 +23°C° 0.1 mm 1 mps 687 mmHg 51%
    20:00 +21°C° 0.1 mm 1 mps 687 mmHg 56%
    21:00 +20°C° 0.1 mm 1 mps 687 mmHg 62%
    22:00 +19°C° 0 mm 1 mps 687 mmHg 63%
    23:00 +19°C° 0 mm 1 mps 687 mmHg 64%

    Day after tomorrow, 23 May, Thursday

    Time Temperature Precipitation Wind Pressure Humidity
    00:00 +19°C° 0 mm 1 mps 687 mmHg 65%
    01:00 +18°C° 0 mm 1 mps 687 mmHg 65%
    02:00 +16°C° 0 mm 1 mps 687 mmHg 65%
    03:00 +16°C° 0 mm 1 mps 686 mmHg 65%
    04:00 +16°C° 0 mm 1 mps 686 mmHg 62%
    05:00 +18°C° 0 mm 1 mps 686 mmHg 59%
    06:00 +19°C° 0 mm 1 mps 686 mmHg 56%
    07:00 +20°C° 0 mm 1 mps 686 mmHg 50%
    08:00 +22°C° 0 mm 1 mps 686 mmHg 44%
    09:00 +24°C° 0 mm 1 mps 686 mmHg 38%
    10:00 +25°C° 0 mm 2 mps 686 mmHg 36%
    11:00 +26°C° 0 mm 2 mps 686 mmHg 34%
    12:00 +27°C° 0 mm 2 mps 686 mmHg 33%
    13:00 +27°C° 0.2 mm 2 mps 686 mmHg 32%
    14:00 +27°C° 0.2 mm 2 mps 685 mmHg 32%
    15:00 +28°C° 0.2 mm 2 mps 685 mmHg 32%
    16:00 +27°C° 0.1 mm 2 mps 685 mmHg 34%
    17:00 +27°C° 0.1 mm 2 mps 685 mmHg 37%
    18:00 +26°C° 0.1 mm 3 mps 685 mmHg 39%
    19:00 +24°C° 0 mm 2 mps 686 mmHg 43%
    20:00 +21°C° 0 mm 2 mps 686 mmHg 47%
    21:00 +19°C° 0 mm 2 mps 686 mmHg 51%
    22:00 +19°C° 0 mm 2 mps 686 mmHg 52%
    23:00 +18°C° 0 mm 2 mps 686 mmHg 52%

    24 May, Friday

    Time Temperature Precipitation Wind Pressure Humidity
    00:00 +19°C° 0 mm 1 mps 687 mmHg 53%
    01:00 +18°C° 0 mm 1 mps 686 mmHg 54%
    02:00 +18°C° 0 mm 1 mps 686 mmHg 55%
    03:00 +16°C° 0 mm 1 mps 686 mmHg 57%
    04:00 +18°C° 0 mm 1 mps 687 mmHg 55%
    05:00 +19°C° 0 mm 1 mps 687 mmHg 54%
    06:00 +19°C° 0 mm 1 mps 687 mmHg 52%
    07:00 +21°C° 0 mm 1 mps 687 mmHg 48%
    08:00 +22°C° 0 mm 1 mps 687 mmHg 45%
    09:00 +24°C° 0 mm 2 mps 687 mmHg 41%
    10:00 +25°C° 0 mm 2 mps 687 mmHg 39%
    11:00 +26°C° 0 mm 2 mps 687 mmHg 37%
    12:00 +27°C° 0 mm 2 mps 687 mmHg 35%
    13:00 +28°C° 0.1 mm 2 mps 687 mmHg 34%
    14:00 +29°C° 0.1 mm 2 mps 687 mmHg 33%
    15:00 +29°C° 0.1 mm 2 mps 687 mmHg 32%
    16:00 +29°C° 0.2 mm 2 mps 687 mmHg 34%
    17:00 +28°C° 0.2 mm 2 mps 687 mmHg 37%
    18:00 +27°C° 0.2 mm 2 mps 687 mmHg 39%
    19:00 +25°C° 0.2 mm 2 mps 687 mmHg 43%
    20:00 +24°C° 0.2 mm 2 mps 688 mmHg 46%
    21:00 +21°C° 0.2 mm 2 mps 688 mmHg 50%
    22:00 +21°C° 0.2 mm 2 mps 688 mmHg 51%
    23:00 +20°C° 0.2 mm 2 mps 688 mmHg 52%

    25 May, Saturday

    Time Temperature Precipitation Wind Pressure Humidity
    00:00 +20°C° 0.2 mm 2 mps 688 mmHg 53%
    01:00 +19°C° 0.1 mm 2 mps 688 mmHg 54%
    02:00 +19°C° 0.1 mm 2 mps 688 mmHg 55%
    03:00 +19°C° 0.1 mm 2 mps 688 mmHg 56%
    04:00 +19°C° 0.1 mm 2 mps 688 mmHg 55%
    05:00 +20°C° 0.1 mm 2 mps 688 mmHg 54%
    06:00 +20°C° 0.1 mm 2 mps 689 mmHg 53%
    07:00 +23°C° 0 mm 2 mps 689 mmHg 47%
    08:00 +25°C° 0 mm 3 mps 689 mmHg 41%
    09:00 +27°C° 0 mm 3 mps 689 mmHg 35%
    10:00 +28°C° 0 mm 4 mps 688 mmHg 34%
    11:00 +29°C° 0 mm 4 mps 688 mmHg 32%
    12:00 +30°C° 0 mm 4 mps 688 mmHg 30%
    13:00 +32°C° 0.1 mm 4 mps 688 mmHg 28%
    14:00 +33°C° 0.1 mm 5 mps 687 mmHg 26%
    15:00 +33°C° 0.1 mm 5 mps 687 mmHg 25%
    16:00 +32°C° 0.1 mm 5 mps 686 mmHg 27%
    17:00 +30°C° 0.1 mm 5 mps 686 mmHg 28%
    18:00 +29°C° 0.1 mm 4 mps 686 mmHg 30%
    19:00 +27°C° 0.3 mm 4 mps 686 mmHg 33%
    20:00 +25°C° 0.3 mm 3 mps 686 mmHg 36%
    21:00 +24°C° 0.3 mm 3 mps 686 mmHg 39%
    22:00 +22°C° 0 mm 3 mps 686 mmHg 40%
    23:00 +22°C° 0 mm 3 mps 686 mmHg 41%

    26 May, Sunday

    Time Temperature Precipitation Wind Pressure Humidity
    00:00 +21°C° 0 mm 3 mps 685 mmHg 41%
    01:00 +21°C° 0 mm 3 mps 685 mmHg 41%
    02:00 +20°C° 0 mm 3 mps 685 mmHg 41%
    03:00 +20°C° 0 mm 2 mps 685 mmHg 41%
    04:00 +20°C° 0 mm 2 mps 685 mmHg 41%
    05:00 +21°C° 0 mm 2 mps 685 mmHg 41%
    06:00 +21°C° 0 mm 2 mps 685 mmHg 42%
    07:00 +24°C° 0 mm 2 mps 685 mmHg 37%
    08:00 +26°C° 0 mm 2 mps 685 mmHg 31%
    09:00 +28°C° 0 mm 2 mps 685 mmHg 26%
    10:00 +29°C° 0 mm 2 mps 685 mmHg 25%
    11:00 +31°C° 0 mm 2 mps 685 mmHg 23%
    12:00 +33°C° 0 mm 3 mps 685 mmHg 22%
    13:00 +33°C° 0 mm 3 mps 685 mmHg 21%
    14:00 +33°C° 0 mm 3 mps 685 mmHg 19%
    15:00 +33°C° 0 mm 4 mps 684 mmHg 18%
    16:00 +31°C° 0 mm 3 mps 685 mmHg 19%
    17:00 +31°C° 0 mm 3 mps 685 mmHg 21%
    18:00 +30°C° 0 mm 2 mps 685 mmHg 22%
    19:00 +28°C° 0 mm 3 mps 685 mmHg 28%
    20:00 +25°C° 0 mm 3 mps 686 mmHg 33%
    21:00 +22°C° 0 mm 4 mps 686 mmHg 38%
    22:00 +21°C° 0 mm 4 mps 686 mmHg 42%
    23:00 +20°C° 0 mm 3 mps 686 mmHg 47%
    Show more